Location: Brabourne
(51.1333°N, 1.0000°E)
Time: 11:20:34
(UTC+00:00)

IRS-1D - Pass Details

Date: 23 October 2021
Orbit: 739 x 817 km, 98.6° (Epoch: 30 November)

Event Time Altitude Azimuth Distance (km) Brightness Sun altitude
Rises 02:44:55 0° 14° (NNE) 3,279 7.3 -35.5°
Reaches altitude 10° 02:47:16 10° 14° (NNE) 2,335 6.4 -35.2°
Enters shadow 02:49:11 23° 13° (NNE) 1,591 5.4 -34.9°
